Regional Weather Roundup
Issued by NWS

Home | Current Version | Previous Version | Text Only | Print | Product List | Glossary On
Versions: 1 2 3 4 5 6 7 8 9 10 11 12 13 14 15 16 17 18 19 20 21 22 23 24 25 26 27 28 29 30 31 32 33 34 35 36 37 38 39 40 41 42 43 44 45 46 47 48 49 50
000
ASUS43 KLOT 190302
RWRIL

ILLINOIS REGIONAL WEATHER ROUNDUP
NATIONAL WEATHER SERVICE CHICAGO/ROMEOVILLE IL
1000 PM CDT SAT APR 18 2015

NOTE: "FAIR" INDICATES FEW OR NO CLOUDS BELOW 12,000 FEET WITH NO
SIGNIFICANT WEATHER AND/OR OBSTRUCTIONS TO VISIBILITY.

* THESE STATIONS ARE NOT UNDER NWS QUALITY CONTROL. THEY ALSO MAY NOT
  REPORT WEATHER SUCH AS PRECIPITATION OR FOG.

ILZ001-002-007-009-015-016-024-190400-
NORTHWEST ILLINOIS

CITY           SKY/WX    TMP DP  RH WIND       PRES   REMARKS
MOLINE         MOCLDY    63  46  54 E15       29.91S
STERLING*      MOCLDY    59  37  44 E16       29.96S
$$

ILZ003-004-008-010-011-017-018-190400-
NORTH CENTRAL ILLINOIS

CITY           SKY/WX    TMP DP  RH WIND       PRES   REMARKS
ROCKFORD       MOCLDY    54  30  40 E13       30.01F
$$

ILZ005-006-012>014-019>023-190400-
NORTHEAST ILLINOIS

CITY           SKY/WX    TMP DP  RH WIND       PRES   REMARKS
CHICAGO-OHARE  MOCLDY    48  34  58 NE9       30.02F
CHICAGO-MIDWAY CLOUDY    51  35  54 N10       30.01F
AURORA         FAIR      54  31  41 NE15      29.99S
WAUKEGAN       PTCLDY    46  33  60 N13G22    30.03F
DUPAGE AIRPORT PTCLDY    51  32  48 NE10      30.00F
WHEELING       MOCLDY    47  34  60 VRB6      30.04S
NORTHERLY ISL    N/A     48  37  65 N8          N/A
$$

LMZ740>746-190400-
SOUTHERN LAKE MICHIGAN

STATION/POSITION SKY/WX   TEMP    WIND        PRES    VSBY  WAVE
                          AIR SEA DIR/SP/G                  HT/PER
                          (F)     (DEG/KT/KT) (MB)    (MI)  (FT/S)
HARRISON CRIB              42     340/ 16/ 18   N/A
BURNHAM HARBOR             46      10/  8/ 14   N/A
CALUMET HARBOR             44     330/ 11/ 13   N/A
BURNS HARBOR               42     330/  6/  9 1017.3R
MICHIGAN CITY              42     260/  3/  4   N/A
MICHIGAN CITY 6N           41 46  300/  4/  6   N/A           4/ 6
$$

ILZ025>027-034>036-040-047-049-050-058-095>099-190400-
WEST-CENTRAL ILLINOIS

CITY           SKY/WX    TMP DP  RH WIND       PRES   REMARKS
QUINCY         CLOUDY    64  56  75 NE3       29.87F
$$

ILZ028>032-037-038-041>044-048-051>054-059>061-190400-
CENTRAL ILLINOIS

CITY           SKY/WX    TMP DP  RH WIND       PRES   REMARKS
DECATUR        CLOUDY    60  49  66 E7        29.92F
PEORIA         PTCLDY    69  47  45 E8        29.92S
SPRINGFIELD    MOCLDY    67  51  56 E8        29.90F
TAYLORVILLE    NOT AVBL
$$

ILZ033-039-045-046-055>057-062-063-190400-
EAST-CENTRAL ILLINOIS

CITY           SKY/WX    TMP DP  RH WIND       PRES   REMARKS
CHAMPAIGN      CLOUDY    64  48  56 NE7       29.93F
MATTOON        CLOUDY    64  49  57 E6        29.91F
$$

ILZ079-100>102-190400-
SOUTHWEST ILLINOIS

CITY           SKY/WX    TMP DP  RH WIND       PRES   REMARKS
ALTON          MOCLDY    68  55  64 NE6       29.88S
BELLEVILLE     CLOUDY    70  58  66 E5        29.86S
CAHOKIA*       MOCLDY    71  57  61 S5        29.86S
$$

ILZ064>066-069>071-074>076-080>082-084>086-088>090-092>094-190400-
SOUTH-CENTRAL ILLINOIS

CITY           SKY/WX    TMP DP  RH WIND       PRES   REMARKS
CARBONDALE     CLOUDY    67  58  72 E5        29.87S
MT. VERNON     CLOUDY    66  54  63 NE3       29.90R
$$

ILZ067-068-072-073-078-083-087-091-190400-
SOUTHEAST ILLINOIS

CITY           SKY/WX    TMP DP  RH WIND       PRES   REMARKS
LAWRENCEVILLE  MOCLDY    67  47  48 NE8       29.90F
$$

ABBREVIATIONS USED IN REMARKS
   TC - TEMPERATURE IN CELSIUS
  WCI - WIND CHILL INDEX
   HX - HEAT INDEX
  VSB - VISIBILITY
$$



USA.gov is the U.S. government's official web portal to all federal, state and local government web resources and services.